World > North America > United States > Iowa > Harpers Ferry  

Harpers Ferry, IA Hourly Weather Updates

Feedback E-mail the Weather

Quick Clicks

Harpers Ferry, IA Weather Maps

°F °C°F °C
Harpers Ferry Weather Map
UTC Time: 6/23/2024, 03:59
Your Time:

Harpers Ferry, IA Regional Weather

Expires:202406230400;;499859
ASUS43 KDMX 230306
RWRIA 

WEATHER ROUNDUP FOR IOWA
NATIONAL WEATHER SERVICE DES MOINES IA
1000 PM CDT SAT JUN 22 2024

NOTE: "FAIR" INDICATES FEW OR NO CLOUDS BELOW 12,000 FEET WITH NO
SIGNIFICANT WEATHER AND/OR OBSTRUCTIONS TO VISIBILITY.

* - THESE STATIONS ARE NOT NWS STATIONS...THUS NOT UNDER NWS
QUALITY CONTROL.  THEY ALSO DO NOT REPORT WEATHER SUCH 
AS PRECIPITATION OR FOG.  


IAZ007>011-017>019-026>030-037>042-050>054-066-230400-
   NORTHEAST IOWA
  
CITY           SKY/WX    TMP DP  RH WIND       PRES   REMARKS
CEDAR RAPIDS   CLOUDY    75  74  96 NW14      29.72F TC  24           
CHARLES CITY * MOCLDY    72  72 100 NW6       29.78R TC  22           
CLINTON *      TSTM      76 N/A N/A NW33G47   29.70R TC  24           
DECORAH *      MOCLDY    70  70 100 CALM      29.75R TC  21           
DUBUQUE        CLOUDY    71 N/A N/A NW8       29.70S TC  22           
MONTICELLO *   CLOUDY    75  73  94 NW13      29.69S TC  24           
OELWEIN *      PTCLDY    70  70 100 NW7       29.77R TC  21           
WATERLOO       PTCLDY    72  69  90 NW6       29.76R TC  22           
$$
 

SKY/WX - Weather  TMP - Temperature  DP - Dew Point  RH - Humidity
WIND - Wind Direction/Speed PRES - Barometric Pressure VSB - Visibility
WCI - Wind Chill Index E13G22 Wind - East Wind 13 mph/Gusts of 22 mph

Trending Headlines

Trending Entertainment Headlines

Harpers Ferry Radar Loop

Use the map search tool if you want to place a location marker on the radar map...

Harpers Ferry Quick Facts

National Two Day Weather Forecast


E-mail the Harpers Ferry Weather Forecast

Voice your opinion or tell us about page issues...